Regional Weather Roundup
Issued by NWS Midland/Odessa, TX

Home | Current Version | Previous Version | Text Only | Print | Product List | Glossary On
Versions: 1 2 3 4 5 6 7 8 9 10 11 12 13 14 15 16 17 18 19 20 21 22 23 24 25 26 27 28 29 30 31 32 33 34 35 36 37 38 39 40 41 42 43 44 45 46 47 48 49 50
000
ASUS44 KMAF 231910
RWRMAF
MIDLAND AREA WEATHER ROUNDUP
NATIONAL WEATHER SERVICE MIDLAND TX
200 PM CDT SUN JUL 23 2017

...IN SOUTHWEST TEXAS AND SOUTHEAST NEW MEXICO...

CITY           SKY/WX    TMP DP  RH WIND       PRES   REMARKS
ALPINE         MOSUNNY   80  62  55 N5        30.19F
ANDREWS        CLOUDY    82  61  47 CALM      30.08F
ARTESIA        CLOUDY    82  64  54 S13       30.09F
BIG SPRING     CLOUDY    83  63  49 SW12      30.06F
CARLSBAD       CLOUDY    77  68  73 SE7       30.07F
DRYDEN           N/A     93  66  40 E8G20     29.96F
FORT STOCKTON  MOSUNNY   83  67  58 N7        30.06F
GUAD PASS      CLOUDY    74  62  66 E14       30.21F
HOBBS          MOSUNNY   84  59  42 SW6       30.10F
MARFA          MOSUNNY   81  60  48 S5        30.17F
MIDLAND AIRPK  PTSUNNY   85  62  45 S6        30.06F
MIDLAND INTL   CLOUDY    81  65  58 S9        30.06F
ODESSA         PTSUNNY   79  66  64 MISG      30.08S
PECOS          CLOUDY    87  62  43 CALM      30.03F
PRESIDIO       MOCLDY    82  63  51 SE7       30.08F
SEMINOLE       CLOUDY    89  61  39 S13       30.08F
SNYDER         CLOUDY    94  60  32 SW12      29.99F
WINK           MOSUNNY   83  65  54 CALM      30.04F
$$
...OTHER STATIONS IN TEXAS...

CITY           SKY/WX    TMP DP  RH WIND       PRES   REMARKS
ABILENE        SUNNY    100  61  27 SW5G16    29.93F HX 101
AMARILLO       MOSUNNY   87  61  41 E15G22    30.08F
AUSTIN         MOSUNNY   98  70  40 VRB6      29.90F HX 105
BROWNSVILLE    MOSUNNY   92  73  53 S22G29    29.93F HX 100
CORPUS CHRISTI MOSUNNY   95  74  50 S14G22    29.91F HX 105
DALLAS FTW     MOSUNNY   99  72  41 SW9       29.86F HX 108
DEL RIO        SUNNY     97  64  33 SE9       29.90F
EL PASO        MOSUNNY   85  64  49 VRB5      30.06F
HOUSTON INT    PTSUNNY   92  73  53 SW9       29.93F HX 100
LUBBOCK        CLOUDY    91  57  31 S5        30.04F
SAN ANGELO     CLOUDY    97  62  31 NW8       29.95F
SAN ANTONIO    MOSUNNY   96  68  39 SE12      29.93F HX 101
WACO           MOSUNNY  100  69  36 S12       29.89F HX 106
WICHITA FALLS  NOT AVBL
$$
...OTHER LOCATIONS IN NEW MEXICO...

CITY           SKY/WX    TMP DP  RH WIND       PRES   REMARKS
ALAMOGORDO     LGT RAIN  77  63  61 NE12      30.12F
ALBUQUERQUE    PTSUNNY   82  56  40 SW12      30.18F
CANNON AFB     CLOUDY    85  60  42 S3        30.12F
CLOVIS         LGT RAIN  84  59  42 SW5       30.12F
HOLLOMAN AFB   LGT RAIN  82  67  59 E13       30.11F
ROSWELL        CLOUDY    88  59  37 VRB3      30.08F
RUIDOSO        MOSUNNY   75  55  50 S10       30.31F
SANTA FE       CLOUDY    83  49  30 N10       30.25F
TRUTH OR CONSE MOSUNNY   83  49  30 VRB3      30.13F
TUCUMCARI      MOSUNNY   92  56  29 E13       30.08F
$$




USA.gov is the U.S. government's official web portal to all federal, state and local government web resources and services.